[[{"header":{"parameterUnit":"m.s-1","parameterCategory":1,"la1":30.2991,"la2":30.254,"lo1":-89.0895,"lo2":-89.0444,"dy":0.0017,"dx":0.0017,"nx":28,"ny":28,"refTime":"2024-06-25T03:00:00:Z","depth":0,"parameterNumber":2,"parameterNumberName":"U-component_of_WINDS"},"data":[0,0,0,0,0,0,0,0,0,0,0,0,0,0,0,0,0,0,0,0,0,0,0,0,0,0,0,0,0,0,0,0,0,0,0,0,0,0,0,0,0,0,0,0,0,0,0,0,0,0,0,0,0,0,0,0,0,0,2.023,2.0232,0,2.04,2.0402,2.0404,2.0376,2.0373,2.037,2.0367,2.0546,2.0554,2.0561,0,0,0,0,0,0,0,0,0,0,0,0,0,1.9885,1.9892,2.023,2.0232,2.0234,2.0399,2.0402,2.0404,2.0376,2.0372,2.0369,2.0366,2.0544,2.0553,2.0562,0,0,0,0,0,0,0,0,0,0,0,0,0,2.0043,1.9894,2.0229,2.024,2.0242,2.0399,2.0402,2.0405,2.0377,2.0372,2.0368,2.0364,2.0541,2.0552,2.0563,2.0722,0,0,2.0598,2.0603,0,0,0,0,0,0,0,0,2.0034,2.0056,2.0236,2.0239,2.0242,2.0362,2.0346,2.0511,2.0378,2.0326,2.0367,2.0362,2.0489,2.0504,2.0546,2.073,2.0738,2.0599,2.0605,2.061,2.0614,0,0,0,0,0,0,0,2.0023,2.0049,2.0297,2.0239,2.0243,2.0238,2.0255,2.0377,2.0431,2.033,2.0328,2.0349,2.049,2.0535,2.055,2.0741,2.0598,2.0608,2.0615,2.062,2.1065,2.107,0,0,0,0,0,0,2.0009,2.004,2.0292,2.0302,2.0125,2.0247,2.0267,2.0328,2.0429,2.044,2.0352,2.0347,2.0518,2.0537,2.0556,2.075,2.061,2.0621,2.0627,2.106,2.1066,2.1072,0,0,0,0,0,0,2.0001,2.0031,2.0285,2.0171,2.0202,2.0258,2.0327,2.0334,2.0379,2.0446,2.0455,2.0389,2.0515,2.054,2.0681,2.0756,2.0626,2.0636,2.1054,2.1062,2.1069,2.1139,0,0,0,0,0,0,1.9992,2.0029,2.0089,2.0172,2.0208,2.0405,2.0331,2.034,2.0398,2.0392,2.0482,2.0493,2.0514,2.0664,2.0692,2.0769,2.0645,2.1048,2.1058,2.1067,2.113,2.1148,2.1163,0,0,0,0,0,1.9979,2.0102,2.0092,2.0122,2.0284,2.041,2.0431,2.0451,2.0404,2.0466,2.0508,2.049,2.0743,2.0679,2.071,2.0792,2.1043,2.1055,2.1066,2.1123,2.1144,2.1162,0,0,0,0,0,0,2.0028,2.0113,2.0103,2.0256,2.0326,2.0405,2.0483,2.0473,2.0558,2.055,2.0572,2.0592,2.0735,2.0777,2.0704,2.0951,2.0887,2.0905,2.0919,2.094,2.0956,2.0944,2.0654,0,0,0,0,0,2.0056,2.015,2.022,2.0348,2.0383,2.0427,2.0483,2.0491,2.0565,2.0595,2.0648,2.0722,2.0818,2.0881,2.0973,2.1135,2.1156,2.1207,2.1223,2.1236,2.1253,2.1343,2.1367,2.1109,2.1109,2.1109,0,0,2.0117,2.0175,2.0233,2.0359,2.0414,2.0512,2.0452,2.0558,2.0632,2.0612,2.0748,2.0789,2.0873,2.1026,2.1095,2.1065,2.1328,2.1251,2.1261,2.127,2.1357,2.1382,2.1404,2.1117,2.1115,2.1114,0,0,2.0277,2.0329,2.0442,2.0498,2.0582,2.061,2.0637,2.0718,2.0744,2.0881,2.0868,2.0956,2.1121,2.1182,2.1234,2.1417,2.1404,2.1446,2.1533,2.1621,2.1641,2.166,2.1727,2.1751,2.1461,2.1462,2.1462,0,2.0342,2.0487,2.0503,2.061,2.0667,2.0651,2.0768,2.0822,2.0932,2.0973,2.0936,2.1143,2.1198,2.1365,2.141,2.1452,2.1485,2.1437,2.1637,2.1655,2.1673,2.1737,2.1762,2.1466,2.1466,2.1465,2.1465,0,2.0564,2.0665,2.0747,2.0852,2.0918,2.1029,2.1063,2.1129,2.1132,2.1164,2.1304,2.1369,2.1475,2.1515,2.1519,2.1683,2.1662,2.1631,2.1567,2.1702,2.1763,2.1787,2.1473,2.1471,2.147,2.1469,0,0,2.0762,2.0873,2.0903,2.0951,2.1041,2.1121,2.1232,2.1333,2.139,2.1466,2.1562,2.1701,2.1673,2.1732,2.1743,2.182,2.1963,2.178,2.1782,2.1814,2.215,2.2175,2.2203,2.1954,2.1959,2.1962,2.2144,0,2.0932,2.1127,2.1144,2.132,2.1415,2.1401,2.1498,2.1565,2.1598,2.1685,2.1721,2.1821,2.1775,2.1811,2.1886,2.193,2.2031,2.1916,2.2046,2.205,2.2027,2.2235,2.2261,2.2429,2.2168,2.2172,2.2175,0,2.1157,2.1239,2.1424,2.1502,2.1542,2.1629,2.1724,2.1806,2.1882,2.1901,2.1967,2.1968,2.2084,2.2013,2.2175,2.2097,2.215,2.218,2.2187,2.2202,2.2122,2.2258,2.2483,2.2509,2.2212,2.2209,2.2206,0,2.1286,2.1442,2.1573,2.1614,2.1707,2.1769,2.1811,2.1883,2.1943,2.2026,2.2066,2.2162,2.2215,2.2291,2.2318,2.2264,2.248,2.2411,2.2501,2.25,2.2549,2.2546,2.2789,2.2579,2.2579,2.2578,2.2578,0,2.1476,2.1591,2.1632,2.1713,2.1841,2.186,2.1987,2.2026,2.209,2.218,2.2173,2.2258,2.2287,2.2377,2.2399,2.2531,2.2555,2.2575,2.258,2.2578,2.2575,2.2615,2.2605,2.2585,2.2584,2.2582,2.2581,0,2.1643,2.1675,2.1817,2.1893,2.1915,2.2007,2.2073,2.2152,2.2182,2.2296,2.2324,2.2374,2.248,2.2513,2.2642,2.2656,2.2811,2.2805,2.2785,2.2787,2.2876,2.2868,2.3155,2.3194,2.2956,2.2958,2.296,0,2.1764,2.1851,2.1936,2.1995,2.2039,2.2134,2.2195,2.2217,2.2281,2.2374,2.2443,2.2546,2.2631,2.2801,2.285,2.2948,2.2946,2.3039,2.2961,2.2956,2.295,2.2946,2.2956,2.3055,2.3058,2.306,2.3061,0,2.1976,2.1987,2.2074,2.2167,2.224,2.2314,2.2387,2.2436,2.2468,2.2541,2.2648,2.2713,2.2843,2.2948,2.3048,2.3093,2.3084,2.3085,2.3112,2.3111,2.3097,2.3108,2.2829,2.3079,2.3077,2.3076,2.3075,2.3074,2.2125,2.2202,2.2274,2.2372,2.2428,2.2496,2.2574,2.2614,2.2703,2.281,2.2817,2.2934,2.3008,2.3141,2.3191,2.3284,2.3258,2.3295,2.3305,2.3315,2.3323,2.308,2.3302,2.3301,2.3301,2.3301,2.33,0,2.2339,2.2384,2.2473,2.2573,2.2651,2.2632,2.2711,2.2778,2.288,2.2949,2.3032,2.3156,2.3257,2.3313,2.3414,2.3478,2.3477,2.3504,2.3501,2.3512,2.334,2.3308,2.3504,2.3504,2.3504,2.3504,2.3504,2.3504,2.2459,2.259,2.2609,2.2768,2.2813,2.2926,2.2973,2.3036,2.3091,2.3229,2.3313,2.3347,2.3412,2.3518,2.3611,2.3625,2.3664,2.3695,2.3706,2.3545,2.3524,2.3504,2.3475,2.3702,2.3702,2.3871,2.3873,2.3874]},{"header":{"parameterUnit":"m.s-1","parameterCategory":1,"la1":30.2991,"la2":30.254,"lo1":-89.0895,"lo2":-89.0444,"dy":0.0017,"dx":0.0017,"nx":28,"ny":28,"refTime":"2024-06-25T03:00:00:Z","depth":0,"parameterNumber":3,"parameterNumberName":"V-component_of_WINDS"},"data":[0,0,0,0,0,0,0,0,0,0,0,0,0,0,0,0,0,0,0,0,0,0,0,0,0,0,0,0,0,0,0,0,0,0,0,0,0,0,0,0,0,0,0,0,0,0,0,0,0,0,0,0,0,0,0,0,0,0,0.876,0.8763,0,0.9025,0.9028,0.9031,0.9091,0.9089,0.9087,0.9085,0.9362,0.9371,0.938,0,0,0,0,0,0,0,0,0,0,0,0,0,0.8312,0.832,0.876,0.8764,0.8767,0.9025,0.9028,0.9032,0.9091,0.9089,0.9086,0.9084,0.9359,0.9369,0.938,0,0,0,0,0,0,0,0,0,0,0,0,0,0.8535,0.8322,0.876,0.8827,0.8836,0.9024,0.9028,0.9033,0.9091,0.9089,0.9086,0.9083,0.9355,0.9368,0.9382,0.9523,0,0,0.9424,0.943,0,0,0,0,0,0,0,0,0.8522,0.8551,0.8814,0.8823,0.8833,0.9022,0.8972,0.9197,0.9092,0.8995,0.9085,0.9082,0.9251,0.9273,0.9329,0.9536,0.9548,0.9425,0.9433,0.9439,0.9443,0,0,0,0,0,0,0,0.8506,0.854,0.8865,0.8818,0.8829,0.8846,0.8875,0.9015,0.9136,0.9003,0.9008,0.9038,0.9256,0.9316,0.9336,0.9552,0.9425,0.9437,0.9445,0.9451,0.9889,0.9892,0,0,0,0,0,0,0.8478,0.8527,0.8857,0.8873,0.8667,0.8857,0.8888,0.8964,0.9134,0.9157,0.904,0.904,0.9294,0.932,0.9346,0.9524,0.9439,0.9452,0.946,0.9886,0.989,0.9894,0,0,0,0,0,0,0.8468,0.8507,0.8846,0.8701,0.8746,0.8867,0.8952,0.8971,0.9031,0.9162,0.9185,0.9079,0.9293,0.9327,0.9479,0.9534,0.9458,0.9471,0.9882,0.9887,0.9892,0.988,0,0,0,0,0,0,0.8455,0.8503,0.8557,0.8702,0.8753,0.8972,0.8955,0.8978,0.9054,0.9056,0.9205,0.9227,0.9293,0.9458,0.9492,0.9552,0.9481,0.9877,0.9884,0.989,0.9876,0.9884,0.9891,0,0,0,0,0,0.8439,0.8544,0.8559,0.8599,0.8822,0.8975,0.9005,0.9078,0.9058,0.9114,0.9198,0.9222,0.9522,0.9473,0.9512,0.9577,0.9874,0.9882,0.989,0.9872,0.9882,0.989,0,0,0,0,0,0,0.8405,0.8564,0.8583,0.8738,0.8842,0.8985,0.9058,0.9086,0.92,0.9197,0.9284,0.9317,0.9464,0.9535,0.9477,0.9723,0.9698,0.9714,0.9671,0.9682,0.9689,0.967,0.9493,0,0,0,0,0,0.8414,0.8523,0.8658,0.8781,0.8832,0.8936,0.9005,0.9052,0.9165,0.921,0.9306,0.9416,0.9535,0.9612,0.9729,0.9885,0.992,0.9949,0.9957,0.9962,0.9976,1.0065,1.008,0.9919,0.9919,0.9919,0,0,0.8437,0.8538,0.8602,0.8777,0.8863,0.8976,0.8973,0.9092,0.9178,0.9229,0.9378,0.9451,0.958,0.9735,0.9808,0.9799,1.0027,0.9972,0.9975,0.9986,1.0075,1.009,1.0103,0.9924,0.9923,0.9922,0,0,0.8536,0.8622,0.8735,0.8821,0.8952,0.902,0.9046,0.9185,0.9236,0.9386,0.9427,0.953,0.9733,0.9824,0.9896,1.0028,1.0055,1.0064,1.0104,1.019,1.0203,1.0215,1.0264,1.028,1.0076,1.0076,1.0076,0,0.8549,0.8718,0.879,0.8908,0.8985,0.9033,0.915,0.923,0.9393,0.9446,0.9433,0.9689,0.9779,0.9956,0.9988,1.0044,1.008,1.0048,1.0195,1.0208,1.022,1.0267,1.0285,1.0077,1.0077,1.0077,1.0077,0,0.8728,0.8845,0.8921,0.9075,0.916,0.9276,0.9367,0.9445,0.9484,0.9553,0.9706,0.9816,0.9956,1.0001,1.0041,1.0185,1.0175,1.0177,1.0154,1.0234,1.0281,1.0299,1.0077,1.0077,1.0077,1.0077,0,0,0.8815,0.9006,0.9033,0.9103,0.925,0.9343,0.9462,0.9597,0.9663,0.9773,0.9877,1.0047,1.0049,1.0132,1.0182,1.0257,1.0357,1.0251,1.0255,1.0268,1.0524,1.0523,1.0543,1.0374,1.0378,1.0381,1.0514,0,0.8934,0.9146,0.9214,0.9392,0.9502,0.9549,0.9653,0.9755,0.9823,0.9928,1.0004,1.0124,1.0117,1.0168,1.0244,1.0328,1.041,1.0319,1.0474,1.0478,1.0442,1.0567,1.0566,1.0686,1.0532,1.0535,1.0537,0,0.9102,0.9212,0.9401,0.9534,0.9582,0.9674,0.9804,0.9903,1.002,1.0064,1.0155,1.0199,1.0327,1.0294,1.0472,1.0409,1.0476,1.0527,1.0533,1.0553,1.0514,1.0592,1.0726,1.0745,1.0566,1.0564,1.0562,0,0.9149,0.9345,0.9483,0.9542,0.97,0.9764,0.9833,0.9947,1.0024,1.0138,1.0189,1.0316,1.0387,1.0485,1.0563,1.0531,1.0735,1.0708,1.0777,1.0775,1.082,1.0817,1.097,1.0859,1.0859,1.0858,1.0858,0,0.9276,0.939,0.9507,0.9592,0.9721,0.9798,0.9925,0.9997,1.0098,1.0199,1.0248,1.0342,1.0438,1.0546,1.0607,1.0747,1.0778,1.0819,1.0834,1.0816,1.0811,1.0863,1.0857,1.0863,1.0862,1.0861,1.086,0,0.9351,0.9434,0.9588,0.9724,0.9761,0.9851,0.9968,1.0054,1.0123,1.0251,1.0285,1.0394,1.0524,1.061,1.0776,1.0817,1.0969,1.0982,1.0929,1.0937,1.1002,1.0995,1.1196,1.1227,1.1092,1.1093,1.1094,0,0.9428,0.9517,0.9662,0.9732,0.9801,0.9914,0.9992,1.0071,1.0151,1.0291,1.036,1.0492,1.0602,1.0806,1.0902,1.1029,1.1046,1.1108,1.1066,1.1045,1.105,1.1044,1.1055,1.1115,1.1116,1.1117,1.1118,0,0.9556,0.9592,0.9702,0.9827,0.9918,1.0021,1.0124,1.0179,1.0276,1.0364,1.0495,1.058,1.0748,1.088,1.1015,1.1089,1.1121,1.1129,1.1153,1.1136,1.1103,1.1123,1.0949,1.1125,1.1124,1.1124,1.1123,1.1123,0.9637,0.9718,0.9832,0.9954,1.0039,1.0133,1.022,1.0299,1.041,1.0552,1.0592,1.073,1.0845,1.103,1.1106,1.1216,1.121,1.1243,1.1252,1.1259,1.126,1.1082,1.124,1.124,1.124,1.124,1.124,0,0.977,0.9845,0.9955,1.0096,1.0192,1.021,1.0325,1.0404,1.0524,1.0628,1.0735,1.0886,1.1013,1.1118,1.1249,1.1317,1.1335,1.1349,1.1346,1.1363,1.1257,1.1225,1.1333,1.1333,1.1333,1.1333,1.1332,1.1332,0.985,0.9988,1.0038,1.0219,1.0295,1.0429,1.0493,1.0581,1.0664,1.0831,1.0936,1.1002,1.1107,1.1246,1.1364,1.1392,1.1439,1.145,1.1481,1.1381,1.137,1.1361,1.1331,1.1459,1.1459,1.1579,1.158,1.1581]}]]